• In United Kingdom
  • List of Countries
  • For 7 days
  • Water Temperature
  • Satellite Maps
  • Weather Map
  • Weather Widgets
  • user-avatar
    Login

    Hourly Weather Lezhe

    Today, 23 May, Wednesday

    Time Temperature Precipitation Wind Pressure Humidity
    00:00 +18°C° 0 mm 2 mps 738 mmHg 73%
    01:00 +19°C° 0 mm 3 mps 737 mmHg 72%
    02:00 +18°C° 0.1 mm 2 mps 737 mmHg 72%
    03:00 +18°C° 0.1 mm 2 mps 737 mmHg 72%
    04:00 +18°C° 0.1 mm 2 mps 737 mmHg 72%
    05:00 +19°C° 0.7 mm 2 mps 738 mmHg 72%
    06:00 +21°C° 0.7 mm 2 mps 738 mmHg 71%
    07:00 +23°C° 0.7 mm 1 mps 738 mmHg 70%
    08:00 +24°C° 0.3 mm 1 mps 738 mmHg 65%
    09:00 +26°C° 0.3 mm 1 mps 738 mmHg 59%
    10:00 +27°C° 0.3 mm 1 mps 738 mmHg 53%
    11:00 +27°C° 0.6 mm 2 mps 737 mmHg 54%
    12:00 +27°C° 0.6 mm 3 mps 737 mmHg 54%
    13:00 +28°C° 0.6 mm 3 mps 737 mmHg 55%
    14:00 +26°C° 1.2 mm 3 mps 737 mmHg 64%
    15:00 +24°C° 1.2 mm 3 mps 737 mmHg 72%
    16:00 +22°C° 1.2 mm 3 mps 736 mmHg 81%
    17:00 +21°C° 0.4 mm 3 mps 736 mmHg 82%
    18:00 +20°C° 0.4 mm 3 mps 736 mmHg 83%
    19:00 +20°C° 0.4 mm 3 mps 736 mmHg 83%
    20:00 +20°C° 0.2 mm 3 mps 736 mmHg 82%
    21:00 +19°C° 0.2 mm 3 mps 736 mmHg 81%
    22:00 +19°C° 0.2 mm 3 mps 736 mmHg 80%
    23:00 +19°C° 0.1 mm 2 mps 736 mmHg 79%

    Tomorrow, 24 May, Thursday

    Time Temperature Precipitation Wind Pressure Humidity
    00:00 +19°C° 0.1 mm 2 mps 736 mmHg 79%
    01:00 +18°C° 0.1 mm 2 mps 736 mmHg 79%
    02:00 +18°C° 0.1 mm 2 mps 736 mmHg 79%
    03:00 +19°C° 0.1 mm 1 mps 736 mmHg 79%
    04:00 +19°C° 0.1 mm 1 mps 736 mmHg 79%
    05:00 +20°C° 0 mm 1 mps 736 mmHg 76%
    06:00 +21°C° 0 mm 1 mps 737 mmHg 73%
    07:00 +23°C° 0 mm 1 mps 737 mmHg 69%
    08:00 +24°C° 0.1 mm 1 mps 737 mmHg 65%
    09:00 +25°C° 0.1 mm 2 mps 737 mmHg 61%
    10:00 +26°C° 0.1 mm 2 mps 736 mmHg 57%
    11:00 +26°C° 0.4 mm 2 mps 736 mmHg 58%
    12:00 +27°C° 0.4 mm 3 mps 736 mmHg 58%
    13:00 +27°C° 0.4 mm 3 mps 736 mmHg 59%
    14:00 +26°C° 0.6 mm 3 mps 736 mmHg 62%
    15:00 +26°C° 0.6 mm 3 mps 736 mmHg 64%
    16:00 +26°C° 0.6 mm 3 mps 735 mmHg 66%
    17:00 +24°C° 0.2 mm 3 mps 736 mmHg 72%
    18:00 +23°C° 0.2 mm 2 mps 736 mmHg 78%
    19:00 +20°C° 0.2 mm 2 mps 736 mmHg 84%
    20:00 +20°C° 0 mm 2 mps 736 mmHg 84%
    21:00 +19°C° 0 mm 2 mps 736 mmHg 84%
    22:00 +19°C° 0 mm 2 mps 736 mmHg 85%
    23:00 +18°C° 0.1 mm 2 mps 736 mmHg 85%

    Day after tomorrow, 25 May, Friday

    Time Temperature Precipitation Wind Pressure Humidity
    00:00 +18°C° 0.1 mm 2 mps 736 mmHg 85%
    01:00 +17°C° 0.1 mm 2 mps 736 mmHg 85%
    02:00 +17°C° 0 mm 2 mps 736 mmHg 85%
    03:00 +17°C° 0 mm 2 mps 736 mmHg 86%
    04:00 +17°C° 0 mm 2 mps 736 mmHg 86%
    05:00 +18°C° 0 mm 2 mps 736 mmHg 82%
    06:00 +20°C° 0 mm 2 mps 736 mmHg 78%
    07:00 +21°C° 0 mm 2 mps 736 mmHg 74%
    08:00 +24°C° 0 mm 2 mps 736 mmHg 68%
    09:00 +25°C° 0 mm 2 mps 736 mmHg 63%
    10:00 +27°C° 0 mm 2 mps 736 mmHg 57%
    11:00 +27°C° 0.2 mm 2 mps 736 mmHg 56%
    12:00 +28°C° 0.2 mm 3 mps 736 mmHg 55%
    13:00 +28°C° 0.2 mm 3 mps 736 mmHg 53%
    14:00 +28°C° 0.3 mm 3 mps 736 mmHg 55%
    15:00 +28°C° 0.3 mm 3 mps 736 mmHg 56%
    16:00 +28°C° 0.3 mm 4 mps 736 mmHg 58%
    17:00 +26°C° 0.2 mm 3 mps 736 mmHg 64%
    18:00 +24°C° 0.2 mm 3 mps 736 mmHg 71%
    19:00 +21°C° 0.2 mm 3 mps 736 mmHg 77%
    20:00 +20°C° 0 mm 3 mps 737 mmHg 78%
    21:00 +20°C° 0 mm 2 mps 737 mmHg 78%
    22:00 +19°C° 0 mm 2 mps 737 mmHg 79%
    23:00 +19°C° 0 mm 2 mps 737 mmHg 80%

    26 May, Saturday

    Time Temperature Precipitation Wind Pressure Humidity
    00:00 +18°C° 0 mm 3 mps 737 mmHg 81%
    01:00 +18°C° 0 mm 3 mps 737 mmHg 82%
    02:00 +18°C° 0 mm 3 mps 737 mmHg 83%
    03:00 +18°C° 0 mm 3 mps 737 mmHg 83%
    04:00 +17°C° 0 mm 3 mps 738 mmHg 84%
    05:00 +19°C° 0 mm 3 mps 738 mmHg 80%
    06:00 +20°C° 0 mm 3 mps 738 mmHg 76%
    07:00 +22°C° 0 mm 3 mps 738 mmHg 72%
    08:00 +24°C° 0 mm 3 mps 738 mmHg 66%
    09:00 +26°C° 0 mm 3 mps 738 mmHg 60%
    10:00 +27°C° 0 mm 3 mps 738 mmHg 53%
    11:00 +28°C° 0 mm 3 mps 738 mmHg 52%
    12:00 +28°C° 0 mm 3 mps 738 mmHg 50%
    13:00 +29°C° 0 mm 3 mps 738 mmHg 49%
    14:00 +29°C° 0 mm 3 mps 738 mmHg 50%
    15:00 +29°C° 0 mm 4 mps 738 mmHg 52%
    16:00 +29°C° 0 mm 4 mps 737 mmHg 54%
    17:00 +27°C° 0 mm 4 mps 738 mmHg 61%
    18:00 +25°C° 0 mm 3 mps 738 mmHg 69%
    19:00 +22°C° 0 mm 3 mps 738 mmHg 76%
    20:00 +21°C° 0 mm 3 mps 738 mmHg 77%
    21:00 +20°C° 0 mm 3 mps 739 mmHg 78%
    22:00 +20°C° 0 mm 3 mps 739 mmHg 79%
    23:00 +19°C° 0 mm 3 mps 739 mmHg 81%

    27 May, Sunday

    Time Temperature Precipitation Wind Pressure Humidity
    00:00 +19°C° 0 mm 3 mps 739 mmHg 82%
    01:00 +19°C° 0 mm 3 mps 738 mmHg 83%
    02:00 +19°C° 0 mm 3 mps 738 mmHg 83%
    03:00 +18°C° 0 mm 3 mps 738 mmHg 84%
    04:00 +18°C° 0 mm 3 mps 738 mmHg 85%
    05:00 +20°C° 0 mm 3 mps 739 mmHg 81%
    06:00 +21°C° 0 mm 3 mps 739 mmHg 77%
    07:00 +24°C° 0 mm 3 mps 739 mmHg 73%
    08:00 +25°C° 0 mm 2 mps 739 mmHg 68%
    09:00 +26°C° 0 mm 2 mps 739 mmHg 62%
    10:00 +28°C° 0 mm 2 mps 739 mmHg 56%
    11:00 +28°C° 0.1 mm 2 mps 738 mmHg 55%
    12:00 +29°C° 0.1 mm 3 mps 738 mmHg 54%
    13:00 +29°C° 0.1 mm 3 mps 738 mmHg 52%
    14:00 +29°C° 0.2 mm 3 mps 738 mmHg 53%
    15:00 +29°C° 0.2 mm 3 mps 738 mmHg 54%
    16:00 +29°C° 0.2 mm 3 mps 738 mmHg 56%
    17:00 +27°C° 0.2 mm 3 mps 738 mmHg 63%
    18:00 +25°C° 0.2 mm 3 mps 738 mmHg 70%
    19:00 +23°C° 0.2 mm 2 mps 738 mmHg 77%
    20:00 +23°C° 0.1 mm 2 mps 738 mmHg 78%
    21:00 +21°C° 0.1 mm 2 mps 738 mmHg 78%
    22:00 +20°C° 0.1 mm 2 mps 739 mmHg 79%
    23:00 +20°C° 0 mm 2 mps 738 mmHg 79%

    28 May, Monday

    Time Temperature Precipitation Wind Pressure Humidity
    00:00 +19°C° 0 mm 2 mps 738 mmHg 80%
    01:00 +19°C° 0 mm 2 mps 738 mmHg 80%
    02:00 +19°C° 0 mm 2 mps 738 mmHg 81%
    03:00 +19°C° 0 mm 2 mps 738 mmHg 81%
    04:00 +18°C° 0 mm 2 mps 738 mmHg 82%
    05:00 +20°C° 0 mm 2 mps 738 mmHg 79%
    06:00 +23°C° 0 mm 2 mps 738 mmHg 75%
    07:00 +24°C° 0 mm 2 mps 739 mmHg 72%
    08:00 +26°C° 0 mm 2 mps 739 mmHg 66%
    09:00 +27°C° 0 mm 2 mps 739 mmHg 60%
    10:00 +29°C° 0 mm 2 mps 738 mmHg 55%
    11:00 +29°C° 0.1 mm 2 mps 738 mmHg 53%
    12:00 +30°C° 0.1 mm 2 mps 738 mmHg 51%
    13:00 +30°C° 0.1 mm 3 mps 738 mmHg 49%
    14:00 +30°C° 0.1 mm 3 mps 738 mmHg 51%
    15:00 +29°C° 0.1 mm 3 mps 737 mmHg 53%
    16:00 +29°C° 0.1 mm 4 mps 737 mmHg 55%
    17:00 +27°C° 0.1 mm 3 mps 737 mmHg 61%
    18:00 +25°C° 0.1 mm 3 mps 737 mmHg 67%
    19:00 +23°C° 0.1 mm 2 mps 737 mmHg 73%
    20:00 +23°C° 0 mm 2 mps 738 mmHg 73%
    21:00 +21°C° 0 mm 2 mps 738 mmHg 73%
    22:00 +20°C° 0 mm 2 mps 738 mmHg 73%
    23:00 +19°C° 0 mm 2 mps 738 mmHg 74%
    Show more